Regional Weather Roundup
Issued by NWS Bismarck, ND

Home | Current Version | Previous Version | Text Only | Print | Product List | Glossary On
Versions: 1 2 3 4 5 6 7 8 9 10 11 12 13 14 15 16 17 18 19 20 21 22 23 24 25 26 27 28 29 30 31 32 33 34 35 36 37 38 39 40 41 42 43 44 45 46 47 48 49 50
000
ASUS43 KBIS 250010
RWRBIS

NWR BROADCAST TEXT
NATIONAL WEATHER SERVICE BISMARCK ND
600 PM CST FRI NOV 24 2017

NOTE: "FAIR" INDICATES FEW OR NO CLOUDS BELOW 12,000 FEET WITH NO
SIGNIFICANT WEATHER AND/OR OBSTRUCTIONS TO VISIBILITY.


CITY           SKY/WX    TMP DP  RH WIND       PRES   REMARKS
WILLISTON      CLOUDY    45  32  60 W16       29.79R
MINOT          PTCLDY    42  31  64 W15       29.74R
MINOT AFB      PTCLDY    39  30  69 NW13      29.73R
BISMARCK       CLEAR     48  32  53 W10       29.80R
DICKINSON      CLEAR     36  27  69 W10       29.82R
GARRISON         N/A     41  32  70 W9        29.77R
HETTINGER ARPT PTCLDY    35  28  75 NW9       29.88R
JAMESTOWN      CLEAR     41  34  76 W13       29.70R
CARRINGTON     FAIR      39  32  75 NW14      29.72R
HAZEN          FAIR      41  32  70 W8        29.81R
LINTON           N/A     39  28  65 NW9       29.81R
MANDAN         FAIR      43  32  65 W15       29.79R
OAKES            N/A     39  34  81 W9        29.74R
RUGBY          FAIR      37  32  81 NW15G21   29.70R
STANLEY        FAIR      36  34  93 NW8       29.79R
TIOGA          FAIR      37  30  75 NW6       29.79R
WATFORD CITY   FAIR      43  32  65 W12       29.79R
$$

CITY           SKY/WX    TMP DP  RH WIND       PRES   REMARKS
GRAND FORKS    CLEAR     40  34  79 NW12      29.62R
GRAND FORKS AF CLEAR     39  33  79 NW10      29.62R
DEVILS LAKE    CLEAR     38  32  79 W16       29.68R
FARGO          CLEAR     39  33  79 W10       29.64R
CANDO          FAIR      37  34  87 W13       29.68R
CAVALIER       FAIR      39  30  70 NW16G23   29.61R
GRAFTON        FAIR      37  32  81 NW16      29.64R
GWINNER          N/A     45  36  70 W10       29.71R
LANGDON        FAIR      36  34  93 NW20      29.62R
ROLLA          FAIR      37  30  75 NW17G24   29.67R
WALHALLA       FAIR      37  34  87 NW15G22   29.61R
$$

CITY           SKY/WX    TMP DP  RH WIND       PRES   REMARKS
ABERDEEN       CLEAR     46  35  65 W15       29.77R
MOBRIDGE       CLEAR     44  32  62 NW7       29.79R
BUFFALO          N/A     42  30  62 NW9       29.83R
RAPID CITY     CLEAR     40  25  55 N12       29.89S
GLASGOW        CLEAR     40  26  57 W8        29.84R
SIDNEY         PTCLDY    43  29  57 W10       29.83R
WOLF POINT     CLEAR     40  28  62 W7        29.84R
GLENDIVE       CLEAR     37  25  61 W8        29.88R
MILES CITY     CLEAR     42  24  49 N8        29.91R
BAKER          CLEAR     38  29  70 W9        29.88R
$$

CITY           SKY/WX    TMP DP  RH WIND       PRES   REMARKS
BILLINGS       PTCLDY    46  22  38 CALM      29.92R
GREAT FALLS    CLOUDY    41  21  44 SW16      29.93R
REGINA         MOCLDY    32  30  93 SW7       29.76R
ESTEVAN        MOCLDY    32  28  86 W10       29.75R
$$





USA.gov is the U.S. government's official web portal to all federal, state and local government web resources and services.